Time,TemperatureF,DewpointF,PressureIn,WindDirection,WindDirectionDegrees,WindSpeedMPH,WindSpeedGustMPH,Humidity,HourlyPrecipIn,Conditions,Clouds,dailyrainin,SolarRadiationWatts/m^2,SoftwareType,DateUTC
2013-04-28 00:01:00,71.1,-99.9,29.94,South,185,0.0,1.0,0,0.00,,,0.00,0,weatherlink.com 1.10,2013-04-28 04:01:00,
2013-04-28 00:16:00,71.0,-99.9,29.94,South,185,0.0,2.0,0,0.00,,,0.00,0,weatherlink.com 1.10,2013-04-28 04:16:00,
2013-04-28 00:31:00,71.0,-99.9,29.94,South,185,0.0,1.0,0,0.01,,,0.01,0,weatherlink.com 1.10,2013-04-28 04:31:00,
2013-04-28 00:46:00,70.9,-99.9,29.93,SW,226,0.0,2.0,0,0.01,,,0.01,0,weatherlink.com 1.10,2013-04-28 04:46:00,
2013-04-28 01:01:00,70.9,-99.9,29.93,SW,226,0.0,2.0,0,0.01,,,0.01,0,weatherlink.com 1.10,2013-04-28 05:01:00,
2013-04-28 01:16:00,70.7,-99.9,29.93,SW,226,2.0,3.0,0,0.01,,,0.01,0,weatherlink.com 1.10,2013-04-28 05:16:00,
2013-04-28 01:32:00,70.6,-99.9,29.93,SW,226,1.0,2.0,0,0.00,,,0.01,0,weatherlink.com 1.10,2013-04-28 05:32:00,
2013-04-28 01:47:00,70.6,-99.9,29.92,SW,226,1.0,2.0,0,0.00,,,0.01,0,weatherlink.com 1.10,2013-04-28 05:47:00,
2013-04-28 02:02:00,70.7,-99.9,29.92,SW,226,0.0,1.0,0,0.00,,,0.01,0,weatherlink.com 1.10,2013-04-28 06:02:00,
2013-04-28 02:17:00,70.6,-99.9,29.92,SW,226,0.0,0.0,0,0.00,,,0.01,0,weatherlink.com 1.10,2013-04-28 06:17:00,
2013-04-28 02:32:00,70.5,-99.9,29.91,SW,226,2.0,4.0,0,0.00,,,0.01,0,weatherlink.com 1.10,2013-04-28 06:32:00,
2013-04-28 02:47:00,70.2,-99.9,29.91,SW,226,1.0,3.0,0,0.00,,,0.01,0,weatherlink.com 1.10,2013-04-28 06:47:00,
2013-04-28 03:02:00,70.0,-99.9,29.91,SW,234,1.0,5.0,0,0.00,,,0.01,0,weatherlink.com 1.10,2013-04-28 07:02:00,
2013-04-28 03:17:00,69.9,-99.9,29.90,SW,234,0.0,4.0,0,0.00,,,0.01,0,weatherlink.com 1.10,2013-04-28 07:17:00,
2013-04-28 03:32:00,69.8,-99.9,29.90,SW,236,0.0,4.0,0,0.00,,,0.01,0,weatherlink.com 1.10,2013-04-28 07:32:00,
2013-04-28 03:47:00,69.8,-99.9,29.90,SW,236,3.0,4.0,0,0.00,,,0.01,0,weatherlink.com 1.10,2013-04-28 07:47:00,
2013-04-28 04:02:00,69.7,-99.9,29.90,SW,236,2.0,3.0,0,0.00,,,0.01,0,weatherlink.com 1.10,2013-04-28 08:02:00,
2013-04-28 04:17:00,69.7,-99.9,29.90,WSW,240,3.0,5.0,0,0.00,,,0.01,0,weatherlink.com 1.10,2013-04-28 08:17:00,
2013-04-28 04:32:00,69.7,-99.9,29.90,WSW,240,0.0,1.0,0,0.00,,,0.01,0,weatherlink.com 1.10,2013-04-28 08:32:00,
2013-04-28 04:48:00,69.6,-99.9,29.90,WSW,240,2.0,4.0,0,0.00,,,0.01,0,weatherlink.com 1.10,2013-04-28 08:48:00,
2013-04-28 05:03:00,69.6,-99.9,29.90,WSW,240,0.0,5.0,0,0.00,,,0.01,0,weatherlink.com 1.10,2013-04-28 09:03:00,
2013-04-28 05:18:00,69.7,-99.9,29.91,WSW,240,0.0,3.0,0,0.00,,,0.01,0,weatherlink.com 1.10,2013-04-28 09:18:00,
2013-04-28 05:33:00,69.9,-99.9,29.91,WSW,240,1.0,3.0,0,0.01,,,0.02,0,weatherlink.com 1.10,2013-04-28 09:33:00,
2013-04-28 05:48:00,70.2,-99.9,29.92,WSW,240,0.0,3.0,0,0.01,,,0.02,0,weatherlink.com 1.10,2013-04-28 09:48:00,
2013-04-28 06:03:00,70.2,-99.9,29.91,WSW,240,0.0,3.0,0,0.01,,,0.02,7,weatherlink.com 1.10,2013-04-28 10:03:00,
2013-04-28 06:18:00,70.2,-99.9,29.92,WSW,240,0.0,3.0,0,0.01,,,0.02,21,weatherlink.com 1.10,2013-04-28 10:18:00,
2013-04-28 06:33:00,70.4,-99.9,29.92,SW,217,3.0,6.0,0,0.00,,,0.02,35,weatherlink.com 1.10,2013-04-28 10:33:00,
2013-04-28 06:48:00,70.8,-99.9,29.93,SW,217,0.0,2.0,0,0.00,,,0.02,109,weatherlink.com 1.10,2013-04-28 10:48:00,
2013-04-28 07:03:00,71.3,-99.9,29.93,SW,217,1.0,4.0,0,0.00,,,0.02,167,weatherlink.com 1.10,2013-04-28 11:03:00,
2013-04-28 07:18:00,71.9,-99.9,29.94,North,360,0.0,3.0,0,0.00,,,0.02,214,weatherlink.com 1.10,2013-04-28 11:18:00,
2013-04-28 07:33:00,72.7,-99.9,29.95,WSW,253,1.0,1.0,0,0.00,,,0.02,269,weatherlink.com 1.10,2013-04-28 11:33:00,
2013-04-28 07:48:00,73.4,-99.9,29.95,NW,306,0.0,2.0,0,0.00,,,0.02,323,weatherlink.com 1.10,2013-04-28 11:48:00,
2013-04-28 08:03:00,73.3,-99.9,29.95,NNE,15,0.0,2.0,0,0.00,,,0.02,380,weatherlink.com 1.10,2013-04-28 12:03:00,
2013-04-28 08:19:00,74.1,-99.9,29.96,NE,39,0.0,2.0,0,0.00,,,0.02,438,weatherlink.com 1.10,2013-04-28 12:19:00,
2013-04-28 08:34:00,75.3,-99.9,29.96,NE,36,1.0,5.0,0,0.00,,,0.02,492,weatherlink.com 1.10,2013-04-28 12:34:00,
2013-04-28 08:49:00,76.0,-99.9,29.96,North,5,4.0,6.0,0,0.00,,,0.02,566,weatherlink.com 1.10,2013-04-28 12:49:00,
2013-04-28 09:04:00,76.4,-99.9,29.96,ESE,111,0.0,5.0,0,0.00,,,0.02,615,weatherlink.com 1.10,2013-04-28 13:04:00,
2013-04-28 09:19:00,76.7,-99.9,29.96,NE,51,1.0,4.0,0,0.00,,,0.02,352,weatherlink.com 1.10,2013-04-28 13:19:00,
2013-04-28 09:34:00,76.2,-99.9,29.97,NE,38,0.0,4.0,0,0.00,,,0.02,387,weatherlink.com 1.10,2013-04-28 13:34:00,
2013-04-28 09:49:00,78.4,-99.9,29.97,East,94,1.0,5.0,0,0.00,,,0.02,858,weatherlink.com 1.10,2013-04-28 13:49:00,
2013-04-28 10:04:00,81.0,-99.9,29.97,NNE,23,0.0,4.0,0,0.00,,,0.02,863,weatherlink.com 1.10,2013-04-28 14:04:00,
2013-04-28 10:19:00,79.9,-99.9,29.97,NNE,33,1.0,9.0,0,0.00,,,0.02,886,weatherlink.com 1.10,2013-04-28 14:19:00,
2013-04-28 10:34:00,80.9,-99.9,29.96,North,355,3.0,7.0,0,0.00,,,0.02,990,weatherlink.com 1.10,2013-04-28 14:34:00,
2013-04-28 10:49:00,82.1,-99.9,29.96,NNE,27,1.0,6.0,0,0.00,,,0.02,1093,weatherlink.com 1.10,2013-04-28 14:49:00,
2013-04-28 11:04:00,82.2,-99.9,29.95,East,94,0.0,7.0,0,0.00,,,0.02,1027,weatherlink.com 1.10,2013-04-28 15:04:00,
2013-04-28 11:19:00,84.5,-99.9,29.95,SE,124,1.0,7.0,0,0.00,,,0.02,1071,weatherlink.com 1.10,2013-04-28 15:19:00,
2013-04-28 11:34:00,84.2,-99.9,29.95,South,184,1.0,7.0,0,0.00,,,0.02,1125,weatherlink.com 1.10,2013-04-28 15:34:00,
2013-04-28 11:50:00,83.2,-99.9,29.95,East,80,0.0,11.0,0,0.00,,,0.02,457,weatherlink.com 1.10,2013-04-28 15:50:00,
2013-04-28 12:05:00,84.1,-99.9,29.94,ESE,115,3.0,4.0,0,0.00,,,0.02,1146,weatherlink.com 1.10,2013-04-28 16:05:00,
2013-04-28 12:20:00,84.2,-99.9,29.94,ENE,59,4.0,8.0,0,0.00,,,0.02,1100,weatherlink.com 1.10,2013-04-28 16:20:00,
2013-04-28 12:35:00,83.7,-99.9,29.93,East,90,2.0,9.0,0,0.00,,,0.02,269,weatherlink.com 1.10,2013-04-28 16:35:00,
2013-04-28 12:50:00,83.6,-99.9,29.93,SE,138,0.0,8.0,0,0.00,,,0.02,1230,weatherlink.com 1.10,2013-04-28 16:50:00,
2013-04-28 13:05:00,83.2,-99.9,29.92,NE,53,3.0,7.0,0,0.00,,,0.02,334,weatherlink.com 1.10,2013-04-28 17:05:00,
2013-04-28 13:20:00,82.4,-99.9,29.92,NNE,29,1.0,9.0,0,0.00,,,0.02,318,weatherlink.com 1.10,2013-04-28 17:20:00,
2013-04-28 13:35:00,80.4,-99.9,29.91,North,5,1.0,10.0,0,0.00,,,0.02,264,weatherlink.com 1.10,2013-04-28 17:35:00,
2013-04-28 13:50:00,80.4,-99.9,29.91,WNW,296,1.0,7.0,0,0.00,,,0.02,348,weatherlink.com 1.10,2013-04-28 17:50:00,
2013-04-28 14:05:00,80.7,-99.9,29.91,WNW,299,0.0,2.0,0,0.00,,,0.02,1129,weatherlink.com 1.10,2013-04-28 18:05:00,
2013-04-28 14:20:00,79.8,-99.9,29.90,East,92,0.0,7.0,0,0.00,,,0.02,265,weatherlink.com 1.10,2013-04-28 18:20:00,
2013-04-28 14:35:00,78.2,-99.9,29.90,NE,49,0.0,11.0,0,0.00,,,0.02,355,weatherlink.com 1.10,2013-04-28 18:35:00,
2013-04-28 14:50:00,78.0,-99.9,29.89,SSE,157,0.0,6.0,0,0.00,,,0.02,230,weatherlink.com 1.10,2013-04-28 18:50:00,
2013-04-28 15:06:00,78.8,-99.9,29.89,NNW,344,2.0,3.0,0,0.00,,,0.02,881,weatherlink.com 1.10,2013-04-28 19:06:00,
2013-04-28 15:21:00,79.9,-99.9,29.88,NE,53,1.0,6.0,0,0.00,,,0.02,654,weatherlink.com 1.10,2013-04-28 19:21:00,
2013-04-28 15:36:00,76.8,-99.9,29.88,WNW,283,1.0,11.0,0,0.00,,,0.02,178,weatherlink.com 1.10,2013-04-28 19:36:00,
2013-04-28 15:51:00,75.8,-99.9,29.88,WNW,295,5.0,6.0,0,0.00,,,0.02,123,weatherlink.com 1.10,2013-04-28 19:51:00,
2013-04-28 16:06:00,74.9,-99.9,29.88,NNW,348,0.0,6.0,0,0.00,,,0.02,127,weatherlink.com 1.10,2013-04-28 20:06:00,
2013-04-28 16:21:00,75.1,-99.9,29.88,NNW,348,1.0,3.0,0,0.00,,,0.02,116,weatherlink.com 1.10,2013-04-28 20:21:00,
2013-04-28 16:36:00,74.9,-99.9,29.88,North,349,0.0,4.0,0,0.00,,,0.02,120,weatherlink.com 1.10,2013-04-28 20:36:00,
2013-04-28 16:51:00,75.5,-99.9,29.88,North,349,0.0,3.0,0,0.00,,,0.02,102,weatherlink.com 1.10,2013-04-28 20:51:00,
2013-04-28 17:06:00,75.2,-99.9,29.88,NW,304,0.0,4.0,0,0.00,,,0.02,76,weatherlink.com 1.10,2013-04-28 21:06:00,
2013-04-28 17:21:00,75.2,-99.9,29.88,WNW,289,1.0,4.0,0,0.00,,,0.02,58,weatherlink.com 1.10,2013-04-28 21:21:00,
2013-04-28 17:36:00,75.2,-99.9,29.89,NNW,343,2.0,3.0,0,0.00,,,0.02,16,weatherlink.com 1.10,2013-04-28 21:36:00,
2013-04-28 17:51:00,74.5,-99.9,29.89,NNW,342,1.0,5.0,0,0.00,,,0.02,9,weatherlink.com 1.10,2013-04-28 21:51:00,
2013-04-28 18:06:00,74.7,-99.9,29.89,NNW,342,2.0,3.0,0,0.00,,,0.02,5,weatherlink.com 1.10,2013-04-28 22:06:00,
2013-04-28 18:21:00,74.6,-99.9,29.89,NNW,342,0.0,1.0,0,0.00,,,0.02,5,weatherlink.com 1.10,2013-04-28 22:21:00,
2013-04-28 18:37:00,74.4,-99.9,29.90,NNW,342,0.0,1.0,0,0.00,,,0.02,0,weatherlink.com 1.10,2013-04-28 22:37:00,
2013-04-28 18:52:00,74.3,-99.9,29.89,NNW,342,0.0,1.0,0,0.00,,,0.02,0,weatherlink.com 1.10,2013-04-28 22:52:00,
2013-04-28 19:07:00,74.3,-99.9,29.90,NNW,342,0.0,0.0,0,0.00,,,0.02,0,weatherlink.com 1.10,2013-04-28 23:07:00,
2013-04-28 19:22:00,74.1,-99.9,29.91,NNW,342,0.0,0.0,0,0.00,,,0.02,0,weatherlink.com 1.10,2013-04-28 23:22:00,
2013-04-28 19:37:00,73.1,-99.9,29.91,NNW,342,0.0,2.0,0,0.00,,,0.02,0,weatherlink.com 1.10,2013-04-28 23:37:00,
2013-04-28 19:52:00,73.9,-99.9,29.91,NNW,342,0.0,2.0,0,0.00,,,0.02,0,weatherlink.com 1.10,2013-04-28 23:52:00,
2013-04-28 20:07:00,73.7,-99.9,29.92,NNW,342,2.0,2.0,0,0.00,,,0.02,0,weatherlink.com 1.10,2013-04-29 00:07:00,
2013-04-28 20:22:00,73.2,-99.9,29.92,NNW,340,0.0,4.0,0,0.00,,,0.02,0,weatherlink.com 1.10,2013-04-29 00:22:00,
2013-04-28 20:37:00,73.2,-99.9,29.93,NNW,340,0.0,3.0,0,0.00,,,0.02,0,weatherlink.com 1.10,2013-04-29 00:37:00,
2013-04-28 20:52:00,73.0,-99.9,29.93,NNW,340,1.0,2.0,0,0.00,,,0.02,0,weatherlink.com 1.10,2013-04-29 00:52:00,
2013-04-28 21:07:00,72.9,-99.9,29.93,NNW,340,2.0,3.0,0,0.00,,,0.02,0,weatherlink.com 1.10,2013-04-29 01:07:00,
2013-04-28 21:22:00,72.9,-99.9,29.93,NNW,340,0.0,3.0,0,0.00,,,0.00,0,weatherlink.com 1.10,2013-04-29 01:22:00,
2013-04-28 21:37:00,72.7,-99.9,29.94,NNW,340,0.0,2.0,0,0.00,,,0.00,0,weatherlink.com 1.10,2013-04-29 01:37:00,
2013-04-28 21:52:00,72.7,-99.9,29.94,NNW,340,1.0,2.0,0,0.00,,,0.00,0,weatherlink.com 1.10,2013-04-29 01:52:00,
2013-04-28 22:08:00,72.7,-99.9,29.95,NNW,340,1.0,3.0,0,0.00,,,0.00,0,weatherlink.com 1.10,2013-04-29 02:08:00,
2013-04-28 22:23:00,72.8,-99.9,29.94,NNW,340,0.0,2.0,0,0.00,,,0.00,0,weatherlink.com 1.10,2013-04-29 02:23:00,
2013-04-28 22:38:00,72.7,-99.9,29.94,NNW,340,3.0,3.0,0,0.00,,,0.00,0,weatherlink.com 1.10,2013-04-29 02:38:00,
2013-04-28 22:53:00,72.6,-99.9,29.94,NNW,340,0.0,3.0,0,0.00,,,0.00,0,weatherlink.com 1.10,2013-04-29 02:53:00,
2013-04-28 23:08:00,72.4,-99.9,29.94,NNW,340,1.0,2.0,0,0.00,,,0.00,0,weatherlink.com 1.10,2013-04-29 03:08:00,
2013-04-28 23:23:00,72.2,-99.9,29.94,NNW,339,3.0,4.0,0,0.00,,,0.00,0,weatherlink.com 1.10,2013-04-29 03:23:00,
2013-04-28 23:38:00,72.1,-99.9,29.94,WSW,243,1.0,5.0,0,0.00,,,0.00,0,weatherlink.com 1.10,2013-04-29 03:38:00,
2013-04-28 23:53:00,72.0,-99.9,29.95,WSW,242,0.0,3.0,0,0.00,,,0.00,0,weatherlink.com 1.10,2013-04-29 03:53:00,